星链-30960 (STARLINK-30960 )

导读 | 星芒AI

STARLINK-30960 是 SpaceX Starlink 项目中的一颗低轨通信卫星,属于第三代 Starlink 卫星(也称 Starlink v1.5 或 Block V)。该卫星于 2023 年发射,旨在为全球用户提供高速、低延迟的互联网服务。它运行在约 550 公里的轨道高度,配备先进激光通信系统和相控阵天线,以提升网络性能和连接稳定性。作为 Starlink 卫星群的一部分,STARLINK-30960 有助于扩大覆盖范围,特别是在偏远和网络基础设施薄弱的地区。

基本信息
目录编号:
58456
目录名称:
STARLINK-30960
国际标识:
2023-183V
轨道中心:
EARTH
卫星名称:
星链-30960
卫星全名:
星链-30960 (STARLINK-30960 )
卫星状态:
在轨 (已飞行703 天)
发射日期:
2023-11-28 UTC
国别 :
美国 (US)
星等 :
--
轨道信息
数据来源 国际轨道数据 AOE轨道数据
星历时间 2025-10-29T19:35:41+0800
2天前
查看轨道信息
2025-10-28T07:00:00+0800
3天前
查看轨道信息
半长轴 6860.382km 6860.593km
偏心率 0.0000478 0.0000647
轨道倾角 43.002° 43.002°
近地点辐角 289.923° 245.973°
升交点赤经 342.157° 350.775°
平近点角 70.157° 357.617°
近地点 481.919km 482.014km
远地点 482.575km 482.902km
周期 94.250分钟 94.255分钟
每日圈数 15.278486 15.277784
详细信息
固有亮度:
5
最大亮度:
0.3
卫星平台:
Starlink v2.0 mini
覆盖范围:
全球
运营商:
太空探索技术公司
运营商所在国:
美国
制造商(研发单位):
太空探索技术公司
制造商所在国:
美国
使用方式:
暂无
卫星简介
星链(Starlink)计划是由太空探索技术公司(SpaceX)提出的一个巨型低轨卫星互联网星座项目,计划在2019年至2024年间在太空搭建由约1.2万颗卫星组成的“星链”网络,其中1584颗将部署在地球上空550千米处的近地轨道,并从2020年开始工作。该卫星仍在工作。
2D轨道图
3D轨道图
轨道高度分析图
轨道倾角分析图
轨道综合分析图
查看轨道综合分析图